Location: Lake Hudson State Recreational Area
(41.8372°N, 84.2445°W)
Time: 02:18:23
(UTC-05:00)

Tiangong 2 - Visible Passes

Search period start: 13 December 2017 00:00
Search period end: 23 December 2017 00:00
Orbit: 386 x 390 km, 42.8° (Epoch: 12 December)

Date Brightness Start Highest point End Pass type
(mag) Time Alt. Az. Time Alt. Az. Time Alt. Az.
20 Dec 3.4 18:56:01 10° S 18:57:16 15° SSE 18:57:16 15° SSE visible
21 Dec 3.8 19:33:02 10° SW 19:34:02 18° SW 19:34:02 18° SW visible
22 Dec 2.5 18:35:00 10° SSW 18:37:44 26° SSE 18:38:25 24° SE visible
